George, South Africa

7:37 AM SAST on May 28, 2017 (GMT +0200)
George

Weather History for FAGG - January, 2013

Change the Weather History Date:

Monday, January 21, 2013

  Actual Average Record
Temperature  
Mean Temperature 68 °F -  
Max Temperature 76 °F 74 °F 78 °F (2016)
Min Temperature 60 °F 59 °F 56 °F (2017)
Cooling Degree Days 3    
Growing Degree Days 18 (Base 50)    
Moisture  
Dew Point 61 °F    
Average Humidity 76    
Maximum Humidity 94    
Minimum Humidity 46    
Precipitation  
Precipitation 0.00 in - - ()
Sea Level Pressure  
Sea Level Pressure 30.02 in    
Wind  
Wind Speed 5 mph ()    
Max Wind Speed 12 mph    
Max Gust Speed -    
Visibility 7.9 miles    
Events      
Averages and records for this station are not official NWS values.
T = Trace of Precipitation, MM = Missing Value Source: Averaged Metar Reports

Daily Weather History Graph

Daily Weather History Graph

Search for Another Location

Airport or City:

Trip Planner

Search our weather history database for the weather conditions in past years. The results will help you decide how hot, cold, wet, or windy it might be!

Date:

Astronomy

Jan. 21, 2013 Rise Set
Actual Time 5:40 AM SAST 7:42 PM SAST
Civil Twilight 5:12 AM SAST 8:10 PM SAST
Nautical Twilight 4:38 AM SAST 8:44 PM SAST
Astronomical Twilight 4:02 AM SAST 9:20 PM SAST
Moon 3:12 PM SAST (1/21) 12:56 AM SAST (1/21)
Length of Visible Light 14h 57m
Length of Day
14h 01m
Waxing Gibbous, 72% of the Moon is Illuminated
Jan 21
Waxing Gibbous
Jan 27
Full
Feb 3
Last Quarter
Feb 10
New
Feb 17
First Quarter

Hourly Weather History & Observations

Time (SAST) Temp. Dew Point Humidity Pressure Visibility Wind Dir Wind Speed Gust Speed Precip Events Conditions
12:00 AM 66.2 °F 62.6 °F 88% 30.04 in 6.2 mi West 5.8 mph - N/A   Partly Cloudy
1:00 AM 64.4 °F 62.6 °F 94% 30.01 in - WNW 4.6 mph - N/A   Clear
2:00 AM 63 °F 61 °F 91% 30.01 in 12 mi NW 5.8 mph - -  
2:00 AM 62.6 °F 60.8 °F 94% 30.01 in - NW 5.8 mph - N/A   Clear
3:00 AM 62.6 °F 59.0 °F 88% 29.98 in - WNW 4.6 mph - N/A   Clear
4:00 AM 60.8 °F 59.0 °F 94% 29.98 in - NNW 3.5 mph - N/A   Clear
5:00 AM 61 °F 57 °F 84% 30.01 in 12 mi NW 3.5 mph - -  
5:00 AM 60.8 °F 57.2 °F 88% 30.01 in - NW 3.5 mph - N/A   Clear
6:00 AM 60.8 °F 57.2 °F 88% 30.04 in 6.2 mi NNW 3.5 mph - N/A   Partly Cloudy
7:00 AM 64.4 °F 59.0 °F 83% 30.01 in 6.2 mi NW 5.8 mph - N/A   Partly Cloudy
8:00 AM 69 °F 61 °F 69% 30.02 in 12 mi WNW 5.8 mph - -   Scattered Clouds
8:00 AM 68.0 °F 60.8 °F 78% 30.04 in 6.2 mi West 5.8 mph - N/A   Partly Cloudy
9:00 AM 71.6 °F 60.8 °F 69% 30.04 in 6.2 mi SW 6.9 mph - N/A   Partly Cloudy
10:00 AM 73.4 °F 59.0 °F 61% 30.04 in 6.2 mi SSW 6.9 mph - N/A   Scattered Clouds
11:00 AM 76 °F 59 °F 46% 30.01 in 12 mi SSW 5.8 mph - -   Scattered Clouds
11:00 AM 75.2 °F 59.0 °F 57% 30.04 in 6.2 mi South 6.9 mph - N/A   Partly Cloudy
12:00 PM 77.0 °F 59.0 °F 54% 30.01 in 6.2 mi SSW 11.5 mph - N/A   Partly Cloudy
1:00 PM 73.4 °F 62.6 °F 69% 30.01 in 6.2 mi South 11.5 mph - N/A   Partly Cloudy
2:00 PM 75 °F 64 °F 62% 30.03 in 12 mi SSW 8.1 mph - -   Partly Cloudy
2:00 PM 77.0 °F 64.4 °F 65% 30.01 in 6.2 mi SSW 8.1 mph - N/A   Scattered Clouds
3:00 PM 73.4 °F 64.4 °F 73% 30.01 in 6.2 mi SSW 9.2 mph - N/A   Scattered Clouds
4:00 PM 73.4 °F 62.6 °F 69% 30.01 in 6.2 mi South 9.2 mph - N/A   Scattered Clouds
5:00 PM 73 °F 63 °F 63% 30.01 in 12 mi South 6.9 mph - -   Partly Cloudy
5:00 PM 73.4 °F 62.6 °F 69% 30.01 in 6.2 mi South 5.8 mph - N/A   Scattered Clouds
6:00 PM 71.6 °F 60.8 °F 69% 30.01 in 6.2 mi SSW 6.9 mph - N/A   Partly Cloudy
7:00 PM 69.8 °F 62.6 °F 78% 30.01 in 6.2 mi South 6.9 mph - N/A   Partly Cloudy
8:00 PM 67 °F 61 °F 74% 30.06 in 12 mi WSW 3.5 mph - -   Scattered Clouds
8:00 PM 66.2 °F 60.8 °F 83% 30.04 in 6.2 mi WSW 3.5 mph - N/A   Partly Cloudy
9:00 PM 66.2 °F 60.8 °F 83% 30.06 in - West 4.6 mph - N/A   Clear
10:00 PM 66.2 °F 60.8 °F 83% 30.06 in 6.2 mi West 3.5 mph - N/A   Partly Cloudy
11:00 PM 64.4 °F 60.8 °F 88% 30.06 in - NW 4.6 mph - N/A   Clear